Location: Lafig�re
(44.4503°N, 4.0357°E)
Time: 11:23:52
(UTC+00:00)

Vanguard 2 - Pass Details

Date: 21 January 2021
Orbit: 552 x 2938 km, 32.9° (Epoch: 05 March)

Event Time Altitude Azimuth Distance (km) Brightness Sun altitude
Rises 20:02:08 0° 254° (WSW) 3,159 11.5 -36.1°
Reaches altitude 10° 20:04:31 10° 241° (WSW) 2,441 10.6 -36.5°
Enters shadow 20:07:07 22° 216° (SW) 1,945 9.7 -37.0°
